Location: Burbank
(38.7788°N, 114.0429°W)
Time: 20:48:44
(UTC+00:00)

Vanguard 2 - Pass Details

Date: 14 May 2026
Orbit: 553 x 2894 km, 32.9° (Epoch: 6 June)

Event Time Altitude Azimuth Distance (km) Brightness Sun altitude
Rises 12:12:06 0° 264° (W) 6,730 11.7 -3.0°
Reaches altitude 10° 12:16:40 10° 262° (W) 5,691 11.4 -2.2°
Maximum altitude 12:33:41 69° 184° (S) 2,528 10.1 0.8°
Drops below altitude 10° 12:45:24 10° 104° (ESE) 4,085 12.2 2.9°
Sets 12:48:08 0° 102° (ESE) 4,806 12.7 3.4°
